Year,Month,Day,Hour,Minute,Value (Times are PST for windspeed in km/hr)
2010,10,24,00,00,38.40
2010,10,24,00,01,33.00
2010,10,24,00,02,30.90
2010,10,24,00,03,25.60
2010,10,24,00,04,27.70
2010,10,24,00,05,30.30
2010,10,24,00,06,29.00
2010,10,24,00,07,32.50
2010,10,24,00,08,25.80
2010,10,24,00,09,22.80
2010,10,24,00,10,35.00
2010,10,24,00,11,38.30
2010,10,24,00,12,35.00
2010,10,24,00,13,38.30
2010,10,24,00,14,36.80
2010,10,24,00,15,32.00
2010,10,24,00,16,43.60
2010,10,24,00,17,45.30
2010,10,24,00,18,32.10
2010,10,24,00,19,36.20
2010,10,24,00,20,43.40
2010,10,24,00,21,43.80
2010,10,24,00,22,44.10
2010,10,24,00,23,39.40
2010,10,24,00,24,44.00
2010,10,24,00,25,34.80
2010,10,24,00,26,40.00
2010,10,24,00,27,35.20
2010,10,24,00,28,34.30
2010,10,24,00,29,33.20
2010,10,24,00,30,33.00
2010,10,24,00,31,35.40
2010,10,24,00,32,36.20
2010,10,24,00,33,33.50
2010,10,24,00,34,36.70
2010,10,24,00,35,31.10
2010,10,24,00,36,26.90
2010,10,24,00,37,40.30
2010,10,24,00,38,35.90
2010,10,24,00,39,31.90
2010,10,24,00,40,33.60
2010,10,24,00,41,38.30
2010,10,24,00,42,33.10
2010,10,24,00,43,35.30
2010,10,24,00,44,34.20
2010,10,24,00,45,40.90
2010,10,24,00,46,44.10
2010,10,24,00,47,46.70
2010,10,24,00,48,38.60
2010,10,24,00,49,37.80
2010,10,24,00,50,37.40
2010,10,24,00,51,33.90
2010,10,24,00,52,30.40
2010,10,24,00,53,31.30
2010,10,24,00,54,45.10
2010,10,24,00,55,32.60
2010,10,24,00,56,29.30
2010,10,24,00,57,29.70
2010,10,24,00,58,32.60
2010,10,24,00,59,35.00
2010,10,24,01,00,34.50
2010,10,24,01,01,28.50
2010,10,24,01,02,34.80
2010,10,24,01,03,30.30
2010,10,24,01,04,29.10
2010,10,24,01,05,31.40
2010,10,24,01,06,26.50
2010,10,24,01,07,21.70
2010,10,24,01,08,25.60
2010,10,24,01,09,31.90
2010,10,24,01,10,25.70
2010,10,24,01,11,34.00
2010,10,24,01,12,30.10
2010,10,24,01,13,28.20
2010,10,24,01,14,36.90
2010,10,24,01,15,35.20
2010,10,24,01,16,27.00
2010,10,24,01,17,36.90
2010,10,24,01,18,42.20
2010,10,24,01,19,41.80
2010,10,24,01,20,36.10
2010,10,24,01,21,25.70
2010,10,24,01,22,37.00
2010,10,24,01,23,41.80
2010,10,24,01,24,53.00
2010,10,24,01,25,27.70
2010,10,24,01,26,32.40
2010,10,24,01,27,43.20
2010,10,24,01,28,27.70
2010,10,24,01,29,20.10
2010,10,24,01,30,22.30
2010,10,24,01,31,28.20
2010,10,24,01,32,28.70
2010,10,24,01,33,18.30
2010,10,24,01,34,21.30
2010,10,24,01,35,37.00
2010,10,24,01,36,24.00
2010,10,24,01,37,17.70
2010,10,24,01,38,17.70
2010,10,24,01,39,35.90
2010,10,24,01,40,28.20
2010,10,24,01,41,26.70
2010,10,24,01,42,37.00
2010,10,24,01,43,35.60
2010,10,24,01,44,32.00
2010,10,24,01,45,29.50
2010,10,24,01,46,25.00
2010,10,24,01,47,31.50
2010,10,24,01,48,39.80
2010,10,24,01,49,29.70
2010,10,24,01,50,23.40
2010,10,24,01,51,34.60
2010,10,24,01,52,33.80
2010,10,24,01,53,30.80
2010,10,24,01,54,29.80
2010,10,24,01,55,23.20
2010,10,24,01,56,21.60
2010,10,24,01,57,25.20
2010,10,24,01,58,27.80
2010,10,24,01,59,20.80
2010,10,24,02,00,30.60
2010,10,24,02,01,24.90
2010,10,24,02,02,26.80
2010,10,24,02,03,25.10
2010,10,24,02,04,32.10
2010,10,24,02,05,28.60
2010,10,24,02,06,35.40
2010,10,24,02,07,29.30
2010,10,24,02,08,31.30
2010,10,24,02,09,23.70
2010,10,24,02,10,30.20
2010,10,24,02,11,34.10
2010,10,24,02,12,28.00
2010,10,24,02,13,25.90
2010,10,24,02,14,24.80
2010,10,24,02,15,32.40
2010,10,24,02,16,27.00
2010,10,24,02,17,29.90
2010,10,24,02,18,27.20
2010,10,24,02,19,27.80
2010,10,24,02,20,24.20
2010,10,24,02,21,22.30
2010,10,24,02,22,18.40
2010,10,24,02,23,25.50
2010,10,24,02,24,32.90
2010,10,24,02,25,31.40
2010,10,24,02,26,28.60
2010,10,24,02,27,13.80
2010,10,24,02,28,21.60
2010,10,24,02,29,20.80
2010,10,24,02,30,28.00
2010,10,24,02,31,28.60
2010,10,24,02,32,35.20
2010,10,24,02,33,22.30
2010,10,24,02,34,31.90
2010,10,24,02,35,32.70
2010,10,24,02,36,29.50
2010,10,24,02,37,36.10
2010,10,24,02,38,27.00
2010,10,24,02,39,31.10
2010,10,24,02,40,32.20
2010,10,24,02,41,27.60
2010,10,24,02,42,35.90
2010,10,24,02,43,30.80
2010,10,24,02,44,30.70
2010,10,24,02,45,23.10
2010,10,24,02,46,24.70
2010,10,24,02,47,29.90
2010,10,24,02,48,21.90
2010,10,24,02,49,31.80
2010,10,24,02,50,34.90
2010,10,24,02,51,25.10
2010,10,24,02,52,27.20
2010,10,24,02,53,24.60
2010,10,24,02,54,28.10
2010,10,24,02,55,23.00
2010,10,24,02,56,24.00
2010,10,24,02,57,24.50
2010,10,24,02,58,23.90
2010,10,24,02,59,22.30
2010,10,24,03,00,24.30
2010,10,24,03,01,25.30
2010,10,24,03,02,21.70
2010,10,24,03,03,24.90
2010,10,24,03,04,19.10
2010,10,24,03,05,19.10
2010,10,24,03,06,19.30
2010,10,24,03,07,20.40
2010,10,24,03,08,24.10
2010,10,24,03,09,16.70
2010,10,24,03,10,20.10
2010,10,24,03,11,24.70
2010,10,24,03,12,22.00
2010,10,24,03,13,19.10
2010,10,24,03,14,16.50
2010,10,24,03,15,14.60
2010,10,24,03,16,18.00
2010,10,24,03,17,20.50
2010,10,24,03,18,22.50
2010,10,24,03,19,20.20
2010,10,24,03,20,15.90
2010,10,24,03,21,25.40
2010,10,24,03,22,25.70
2010,10,24,03,23,23.80
2010,10,24,03,24,19.60
2010,10,24,03,25,15.20
2010,10,24,03,26,15.20
2010,10,24,03,27,23.50
2010,10,24,03,28,25.80
2010,10,24,03,29,21.30
2010,10,24,03,30,22.70
2010,10,24,03,31,20.80
2010,10,24,03,32,20.30
2010,10,24,03,33,27.20
2010,10,24,03,34,18.60
2010,10,24,03,35,9.70
2010,10,24,03,36,17.80
2010,10,24,03,37,16.70
2010,10,24,03,38,13.50
2010,10,24,03,39,11.10
2010,10,24,03,40,17.40
2010,10,24,03,41,21.50
2010,10,24,03,42,33.50
2010,10,24,03,43,33.30
2010,10,24,03,44,20.30
2010,10,24,03,45,18.60
2010,10,24,03,46,24.50
2010,10,24,03,47,28.90
2010,10,24,03,48,22.90
2010,10,24,03,49,16.70
2010,10,24,03,50,11.70
2010,10,24,03,51,22.50
2010,10,24,03,52,20.20
2010,10,24,03,53,23.40
2010,10,24,03,54,16.70
2010,10,24,03,55,15.70
2010,10,24,03,56,23.90
2010,10,24,03,57,28.10
2010,10,24,03,58,20.80
2010,10,24,03,59,25.20
2010,10,24,04,00,27.00
2010,10,24,04,01,17.10
2010,10,24,04,02,22.90
2010,10,24,04,03,20.20
2010,10,24,04,04,23.40
2010,10,24,04,05,20.20
2010,10,24,04,06,17.00
2010,10,24,04,07,22.90
2010,10,24,04,08,25.10
2010,10,24,04,09,20.30
2010,10,24,04,10,22.30
2010,10,24,04,11,14.40
2010,10,24,04,12,16.40
2010,10,24,04,13,23.60
2010,10,24,04,14,23.10
2010,10,24,04,15,20.00
2010,10,24,04,16,17.20
2010,10,24,04,17,14.80
2010,10,24,04,18,19.20
2010,10,24,04,19,21.20
2010,10,24,04,20,22.80
2010,10,24,04,21,19.70
2010,10,24,04,22,18.40
2010,10,24,04,23,20.40
2010,10,24,04,24,17.60
2010,10,24,04,25,20.50
2010,10,24,04,26,20.10
2010,10,24,04,27,21.10
2010,10,24,04,28,17.80
2010,10,24,04,29,16.90
2010,10,24,04,30,20.30
2010,10,24,04,31,21.90
2010,10,24,04,32,19.20
2010,10,24,04,33,10.40
2010,10,24,04,34,16.50
2010,10,24,04,35,17.10
2010,10,24,04,36,15.70
2010,10,24,04,37,21.00
2010,10,24,04,38,20.10
2010,10,24,04,39,18.10
2010,10,24,04,40,15.30
2010,10,24,04,41,16.00
2010,10,24,04,42,15.60
2010,10,24,04,43,17.40
2010,10,24,04,44,14.90
2010,10,24,04,45,11.50
2010,10,24,04,46,17.00
2010,10,24,04,47,22.70
2010,10,24,04,48,15.00
2010,10,24,04,49,14.50
2010,10,24,04,50,16.70
2010,10,24,04,51,24.10
2010,10,24,04,52,22.20
2010,10,24,04,53,19.50
2010,10,24,04,54,17.50
2010,10,24,04,55,15.20
2010,10,24,04,56,19.20
2010,10,24,04,57,18.20
2010,10,24,04,58,24.10
2010,10,24,04,59,24.90
2010,10,24,05,00,16.60
2010,10,24,05,01,21.50
2010,10,24,05,02,21.10
2010,10,24,05,03,13.30
2010,10,24,05,04,13.80
2010,10,24,05,05,13.90
2010,10,24,05,06,16.50
2010,10,24,05,07,11.70
2010,10,24,05,08,9.40
2010,10,24,05,09,7.90
2010,10,24,05,10,6.50
2010,10,24,05,11,8.60
2010,10,24,05,12,13.80
2010,10,24,05,13,10.10
2010,10,24,05,14,10.00
2010,10,24,05,15,11.00
2010,10,24,05,16,6.80
2010,10,24,05,17,5.20
2010,10,24,05,18,5.10
2010,10,24,05,19,7.10
2010,10,24,05,20,9.50
2010,10,24,05,21,9.00
2010,10,24,05,22,8.90
2010,10,24,05,23,9.90
2010,10,24,05,24,11.80
2010,10,24,05,25,10.50
2010,10,24,05,26,8.20
2010,10,24,05,27,8.00
2010,10,24,05,28,8.20
2010,10,24,05,29,4.80
2010,10,24,05,30,6.80
2010,10,24,05,31,4.80
2010,10,24,05,32,5.00
2010,10,24,05,33,6.40
2010,10,24,05,34,2.70
2010,10,24,05,35,2.30
2010,10,24,05,36,2.80
2010,10,24,05,37,0.40
2010,10,24,05,38,1.30
2010,10,24,05,39,1.90
2010,10,24,05,40,1.60
2010,10,24,05,41,1.30
2010,10,24,05,42,1.40
2010,10,24,05,43,1.90
2010,10,24,05,44,0.00
2010,10,24,05,45,0.20
2010,10,24,05,46,1.20
2010,10,24,05,47,0.40
2010,10,24,05,48,0.60
2010,10,24,05,49,0.60
2010,10,24,05,50,3.40
2010,10,24,05,51,2.90
2010,10,24,05,52,1.70
2010,10,24,05,53,1.40
2010,10,24,05,54,0.80
2010,10,24,05,55,2.50
2010,10,24,05,56,1.80
2010,10,24,05,57,0.10
2010,10,24,05,58,0.00
2010,10,24,05,59,0.00
2010,10,24,06,00,0.00
2010,10,24,06,01,0.10
2010,10,24,06,02,0.00
2010,10,24,06,03,0.00
2010,10,24,06,04,1.90
2010,10,24,06,05,3.00
2010,10,24,06,06,2.70
2010,10,24,06,07,3.00
2010,10,24,06,08,2.70
2010,10,24,06,09,2.10
2010,10,24,06,10,3.90
2010,10,24,06,11,5.60
2010,10,24,06,12,6.00
2010,10,24,06,13,3.70
2010,10,24,06,14,2.90
2010,10,24,06,15,2.40
2010,10,24,06,16,2.00
2010,10,24,06,17,2.00
2010,10,24,06,18,0.40
2010,10,24,06,19,1.00
2010,10,24,06,20,1.60
2010,10,24,06,21,0.70
2010,10,24,06,22,0.10
2010,10,24,06,23,0.20
2010,10,24,06,24,0.50
2010,10,24,06,25,0.10
2010,10,24,06,26,0.00
2010,10,24,06,27,0.40
2010,10,24,06,28,1.20
2010,10,24,06,29,1.20
2010,10,24,06,30,1.50
2010,10,24,06,31,1.00
2010,10,24,06,32,0.00
2010,10,24,06,33,0.20
2010,10,24,06,34,0.00
2010,10,24,06,35,0.00
2010,10,24,06,36,0.10
2010,10,24,06,37,1.30
2010,10,24,06,38,3.90
2010,10,24,06,39,3.60
2010,10,24,06,40,0.60
2010,10,24,06,41,3.00
2010,10,24,06,42,4.70
2010,10,24,06,43,2.90
2010,10,24,06,44,3.20
2010,10,24,06,45,4.50
2010,10,24,06,46,3.20
2010,10,24,06,47,2.60
2010,10,24,06,48,1.20
2010,10,24,06,49,2.30
2010,10,24,06,50,4.70
2010,10,24,06,51,1.60
2010,10,24,06,52,1.40
2010,10,24,06,53,2.00
2010,10,24,06,54,0.20
2010,10,24,06,55,3.40
2010,10,24,06,56,2.10
2010,10,24,06,57,2.70
2010,10,24,06,58,0.90
2010,10,24,06,59,1.80
2010,10,24,07,00,0.60
2010,10,24,07,01,0.20
2010,10,24,07,02,0.60
2010,10,24,07,03,0.00
2010,10,24,07,04,0.10
2010,10,24,07,05,0.60
2010,10,24,07,06,0.20
2010,10,24,07,07,0.20
2010,10,24,07,08,0.20
2010,10,24,07,09,0.00
2010,10,24,07,10,0.00
2010,10,24,07,11,0.30
2010,10,24,07,12,2.60
2010,10,24,07,13,3.00
2010,10,24,07,14,1.50
2010,10,24,07,15,0.10
2010,10,24,07,16,0.10
2010,10,24,07,17,0.20
2010,10,24,07,18,1.40
2010,10,24,07,19,0.00
2010,10,24,07,20,0.70
2010,10,24,07,21,0.00
2010,10,24,07,22,1.20
2010,10,24,07,23,0.20
2010,10,24,07,24,0.40
2010,10,24,07,25,0.50
2010,10,24,07,26,0.60
2010,10,24,07,27,0.20
2010,10,24,07,28,0.10
2010,10,24,07,29,0.10
2010,10,24,07,30,0.00
2010,10,24,07,31,0.00
2010,10,24,07,32,0.00
2010,10,24,07,33,0.40
2010,10,24,07,34,2.60
2010,10,24,07,35,3.10
2010,10,24,07,36,4.30
2010,10,24,07,37,3.30
2010,10,24,07,38,2.30
2010,10,24,07,39,3.10
2010,10,24,07,40,1.60
2010,10,24,07,41,0.50
2010,10,24,07,42,0.00
2010,10,24,07,43,0.00
2010,10,24,07,44,0.20
2010,10,24,07,45,0.10
2010,10,24,07,46,0.00
2010,10,24,07,47,1.10
2010,10,24,07,48,3.80
2010,10,24,07,49,5.90
2010,10,24,07,50,6.10
2010,10,24,07,51,6.10
2010,10,24,07,52,7.00
2010,10,24,07,53,7.60
2010,10,24,07,54,7.20
2010,10,24,07,55,5.10
2010,10,24,07,56,3.50
2010,10,24,07,57,5.50
2010,10,24,07,58,6.20
2010,10,24,07,59,6.80
2010,10,24,08,00,6.00
2010,10,24,08,01,4.50
2010,10,24,08,02,3.60
2010,10,24,08,03,4.90
2010,10,24,08,04,5.10
2010,10,24,08,05,5.70
2010,10,24,08,06,7.00
2010,10,24,08,07,8.10
2010,10,24,08,08,6.80
2010,10,24,08,09,6.70
2010,10,24,08,10,6.10
2010,10,24,08,11,7.00
2010,10,24,08,12,6.80
2010,10,24,08,13,5.00
2010,10,24,08,14,6.00
2010,10,24,08,15,6.00
2010,10,24,08,16,3.40
2010,10,24,08,17,4.70
2010,10,24,08,18,6.40
2010,10,24,08,19,8.70
2010,10,24,08,20,6.40
2010,10,24,08,21,5.80
2010,10,24,08,22,5.10
2010,10,24,08,23,7.10
2010,10,24,08,24,8.40
2010,10,24,08,25,6.70
2010,10,24,08,26,9.30
2010,10,24,08,27,12.30
2010,10,24,08,28,12.10
2010,10,24,08,29,14.40
2010,10,24,08,30,15.20
2010,10,24,08,31,9.40
2010,10,24,08,32,9.30
2010,10,24,08,33,9.70
2010,10,24,08,34,14.40
2010,10,24,08,35,11.70
2010,10,24,08,36,9.50
2010,10,24,08,37,6.80
2010,10,24,08,38,7.20
2010,10,24,08,39,8.50
2010,10,24,08,40,10.90
2010,10,24,08,41,7.90
2010,10,24,08,42,6.10
2010,10,24,08,43,7.20
2010,10,24,08,44,4.20
2010,10,24,08,45,5.20
2010,10,24,08,46,5.20
2010,10,24,08,47,6.10
2010,10,24,08,48,6.90
2010,10,24,08,49,6.40
2010,10,24,08,50,8.90
2010,10,24,08,51,5.50
2010,10,24,08,52,4.60
2010,10,24,08,53,6.10
2010,10,24,08,54,4.30
2010,10,24,08,55,7.90
2010,10,24,08,56,5.50
2010,10,24,08,57,5.50
2010,10,24,08,58,4.50
2010,10,24,08,59,3.80
2010,10,24,09,00,3.00
2010,10,24,09,01,3.00
2010,10,24,09,02,4.10
2010,10,24,09,03,5.50
2010,10,24,09,04,3.00
2010,10,24,09,05,3.20
2010,10,24,09,06,2.70
2010,10,24,09,07,1.80
2010,10,24,09,08,0.20
2010,10,24,09,09,2.70
2010,10,24,09,10,5.10
2010,10,24,09,11,4.70
2010,10,24,09,12,3.10
2010,10,24,09,13,2.80
2010,10,24,09,14,0.90
2010,10,24,09,15,2.50
2010,10,24,09,16,3.80
2010,10,24,09,17,5.80
2010,10,24,09,18,4.80
2010,10,24,09,19,5.10
2010,10,24,09,20,3.90
2010,10,24,09,21,2.70
2010,10,24,09,22,2.80
2010,10,24,09,23,0.10
2010,10,24,09,24,3.10
2010,10,24,09,25,2.90
2010,10,24,09,26,3.90
2010,10,24,09,27,1.90
2010,10,24,09,28,1.50
2010,10,24,09,29,2.70
2010,10,24,09,30,1.50
2010,10,24,09,31,2.40
2010,10,24,09,32,2.10
2010,10,24,09,33,0.80
2010,10,24,09,34,1.90
2010,10,24,09,35,0.30
2010,10,24,09,36,0.10
2010,10,24,09,37,0.00
2010,10,24,09,38,0.00
2010,10,24,09,39,0.00
2010,10,24,09,40,0.00
2010,10,24,09,41,0.00
2010,10,24,09,42,0.60
2010,10,24,09,43,0.30
2010,10,24,09,44,0.10
2010,10,24,09,45,0.10
2010,10,24,09,46,0.60
2010,10,24,09,47,0.00
2010,10,24,09,48,0.30
2010,10,24,09,49,0.40
2010,10,24,09,50,1.40
2010,10,24,09,51,0.30
2010,10,24,09,52,1.30
2010,10,24,09,53,1.60
2010,10,24,09,54,0.00
2010,10,24,09,55,0.00
2010,10,24,09,56,0.90
2010,10,24,09,57,0.30
2010,10,24,09,58,0.40
2010,10,24,09,59,0.20
2010,10,24,10,00,1.10
2010,10,24,10,01,0.60
2010,10,24,10,02,0.60
2010,10,24,10,03,1.30
2010,10,24,10,04,2.20
2010,10,24,10,05,1.80
2010,10,24,10,06,0.70
2010,10,24,10,07,0.10
2010,10,24,10,08,0.10
2010,10,24,10,09,1.70
2010,10,24,10,10,0.90
2010,10,24,10,11,0.30
2010,10,24,10,12,0.00
2010,10,24,10,13,0.00
2010,10,24,10,14,0.10
2010,10,24,10,15,0.00
2010,10,24,10,16,0.10
2010,10,24,10,17,0.20
2010,10,24,10,18,0.20
2010,10,24,10,19,0.20
2010,10,24,10,20,0.00
2010,10,24,10,21,0.20
2010,10,24,10,22,0.00
2010,10,24,10,23,0.00
2010,10,24,10,24,0.00
2010,10,24,10,25,0.10
2010,10,24,10,26,0.10
2010,10,24,10,27,1.00
2010,10,24,10,28,0.30
2010,10,24,10,29,0.90
2010,10,24,10,30,0.60
2010,10,24,10,31,1.00
2010,10,24,10,32,2.80
2010,10,24,10,33,1.00
2010,10,24,10,34,1.00
2010,10,24,10,35,2.00
2010,10,24,10,36,0.00
2010,10,24,10,37,0.20
2010,10,24,10,38,0.10
2010,10,24,10,39,0.00
2010,10,24,10,40,0.20
2010,10,24,10,41,0.00
2010,10,24,10,42,0.00
2010,10,24,10,43,0.00
2010,10,24,10,44,0.00
2010,10,24,10,45,0.00
2010,10,24,10,46,0.40
2010,10,24,10,47,1.50
2010,10,24,10,48,1.70
2010,10,24,10,49,2.80
2010,10,24,10,50,2.50
2010,10,24,10,51,0.80
2010,10,24,10,52,0.90
2010,10,24,10,53,0.70
2010,10,24,10,54,0.70
2010,10,24,10,55,0.40
2010,10,24,10,56,1.20
2010,10,24,10,57,3.40
2010,10,24,10,58,3.30
2010,10,24,10,59,3.50
2010,10,24,11,00,2.20
2010,10,24,11,01,5.00
2010,10,24,11,02,3.90
2010,10,24,11,03,1.00
2010,10,24,11,04,3.60
2010,10,24,11,05,5.90
2010,10,24,11,06,6.80
2010,10,24,11,07,5.60
2010,10,24,11,08,5.10
2010,10,24,11,09,6.20
2010,10,24,11,10,7.50
2010,10,24,11,11,9.70
2010,10,24,11,12,8.20
2010,10,24,11,13,5.30
2010,10,24,11,14,3.30
2010,10,24,11,15,7.10
2010,10,24,11,16,5.90
2010,10,24,11,17,1.10
2010,10,24,11,18,3.70
2010,10,24,11,19,4.50
2010,10,24,11,20,3.10
2010,10,24,11,21,4.80
2010,10,24,11,22,6.00
2010,10,24,11,23,8.00
2010,10,24,11,24,9.90
2010,10,24,11,25,7.20
2010,10,24,11,26,9.70
2010,10,24,11,27,7.40
2010,10,24,11,28,7.10
2010,10,24,11,29,7.40
2010,10,24,11,30,5.90
2010,10,24,11,31,5.10
2010,10,24,11,32,8.20
2010,10,24,11,33,5.40
2010,10,24,11,34,7.80
2010,10,24,11,35,10.00
2010,10,24,11,36,10.00
2010,10,24,11,37,10.90
2010,10,24,11,38,7.30
2010,10,24,11,39,6.50
2010,10,24,11,40,4.40
2010,10,24,11,41,7.90
2010,10,24,11,42,7.90
2010,10,24,11,43,12.00
2010,10,24,11,44,8.40
2010,10,24,11,45,6.20
2010,10,24,11,46,7.20
2010,10,24,11,47,7.80
2010,10,24,11,48,3.10
2010,10,24,11,49,9.80
2010,10,24,11,50,11.60
2010,10,24,11,51,7.80
2010,10,24,11,52,7.30
2010,10,24,11,53,8.50
2010,10,24,11,54,10.00
2010,10,24,11,55,6.50
2010,10,24,11,56,9.50
2010,10,24,11,57,10.90
2010,10,24,11,58,9.70
2010,10,24,11,59,12.20
2010,10,24,12,00,12.30
2010,10,24,12,01,10.70
2010,10,24,12,02,11.70
2010,10,24,12,03,15.60
2010,10,24,12,04,11.20
2010,10,24,12,05,14.20
2010,10,24,12,06,13.00
2010,10,24,12,07,11.60
2010,10,24,12,08,7.50
2010,10,24,12,09,6.20
2010,10,24,12,10,6.50
2010,10,24,12,11,5.10
2010,10,24,12,12,7.00
2010,10,24,12,13,9.40
2010,10,24,12,14,9.10
2010,10,24,12,15,10.60
2010,10,24,12,16,13.20
2010,10,24,12,17,9.30
2010,10,24,12,18,7.60
2010,10,24,12,19,6.90
2010,10,24,12,20,7.50
2010,10,24,12,21,11.70
2010,10,24,12,22,13.60
2010,10,24,12,23,12.80
2010,10,24,12,24,8.00
2010,10,24,12,25,6.90
2010,10,24,12,26,4.80
2010,10,24,12,27,7.30
2010,10,24,12,28,10.40
2010,10,24,12,29,10.30
2010,10,24,12,30,6.40
2010,10,24,12,31,14.80
2010,10,24,12,32,15.50
2010,10,24,12,33,10.40
2010,10,24,12,34,10.70
2010,10,24,12,35,8.00
2010,10,24,12,36,11.30
2010,10,24,12,37,11.80
2010,10,24,12,38,11.60
2010,10,24,12,39,16.10
2010,10,24,12,40,14.00
2010,10,24,12,41,14.60
2010,10,24,12,42,10.70
2010,10,24,12,43,13.70
2010,10,24,12,44,10.50
2010,10,24,12,45,11.70
2010,10,24,12,46,15.90
2010,10,24,12,47,18.00
2010,10,24,12,48,13.00
2010,10,24,12,49,9.30
2010,10,24,12,50,11.30
2010,10,24,12,51,9.50
2010,10,24,12,52,6.20
2010,10,24,12,53,11.70
2010,10,24,12,54,11.70
2010,10,24,12,55,6.80
2010,10,24,12,56,6.00
2010,10,24,12,57,9.00
2010,10,24,12,58,9.90
2010,10,24,12,59,8.10
2010,10,24,13,00,8.90
2010,10,24,13,01,10.90
2010,10,24,13,02,10.40
2010,10,24,13,03,11.80
2010,10,24,13,04,12.10
2010,10,24,13,05,10.90
2010,10,24,13,06,17.90
2010,10,24,13,07,10.20
2010,10,24,13,08,11.20
2010,10,24,13,09,11.50
2010,10,24,13,10,8.10
2010,10,24,13,11,7.50
2010,10,24,13,12,14.10
2010,10,24,13,13,12.80
2010,10,24,13,14,13.40
2010,10,24,13,15,12.30
2010,10,24,13,16,9.70
2010,10,24,13,17,10.20
2010,10,24,13,18,5.10
2010,10,24,13,19,10.30
2010,10,24,13,20,8.70
2010,10,24,13,21,8.10
2010,10,24,13,22,6.90
2010,10,24,13,23,9.30
2010,10,24,13,24,10.20
2010,10,24,13,25,8.00
2010,10,24,13,26,8.70
2010,10,24,13,27,9.10
2010,10,24,13,28,10.50
2010,10,24,13,29,7.30
2010,10,24,13,30,9.40
2010,10,24,13,31,12.20
2010,10,24,13,32,8.40
2010,10,24,13,33,10.60
2010,10,24,13,34,10.40
2010,10,24,13,35,7.10
2010,10,24,13,36,9.90
2010,10,24,13,37,7.60
2010,10,24,13,38,7.90
2010,10,24,13,39,9.00
2010,10,24,13,40,7.00
2010,10,24,13,41,9.80
2010,10,24,13,42,6.80
2010,10,24,13,43,6.60
2010,10,24,13,44,8.10
2010,10,24,13,45,7.10
2010,10,24,13,46,6.90
2010,10,24,13,47,6.70
2010,10,24,13,48,10.80
2010,10,24,13,49,10.00
2010,10,24,13,50,7.40
2010,10,24,13,51,7.30
2010,10,24,13,52,7.60
2010,10,24,13,53,7.50
2010,10,24,13,54,7.80
2010,10,24,13,55,5.80
2010,10,24,13,56,7.00
2010,10,24,13,57,6.40
2010,10,24,13,58,7.80
2010,10,24,13,59,7.80
2010,10,24,14,00,8.40
2010,10,24,14,01,6.00
2010,10,24,14,02,3.00
2010,10,24,14,03,5.00
2010,10,24,14,04,4.60
2010,10,24,14,05,2.70
2010,10,24,14,06,4.20
2010,10,24,14,07,6.80
2010,10,24,14,08,7.50
2010,10,24,14,09,7.10
2010,10,24,14,10,3.70
2010,10,24,14,11,7.00
2010,10,24,14,12,9.30
2010,10,24,14,13,9.10
2010,10,24,14,14,7.30
2010,10,24,14,15,9.00
2010,10,24,14,16,5.80
2010,10,24,14,17,7.60
2010,10,24,14,18,8.90
2010,10,24,14,19,11.70
2010,10,24,14,20,12.00
2010,10,24,14,21,7.80
2010,10,24,14,22,8.00
2010,10,24,14,23,10.40
2010,10,24,14,24,6.50
2010,10,24,14,25,10.00
2010,10,24,14,26,9.30
2010,10,24,14,27,9.20
2010,10,24,14,28,7.00
2010,10,24,14,29,6.00
2010,10,24,14,30,8.30
2010,10,24,14,31,15.00
2010,10,24,14,32,16.30
2010,10,24,14,33,13.20
2010,10,24,14,34,13.30
2010,10,24,14,35,15.10
2010,10,24,14,36,10.00
2010,10,24,14,37,9.30
2010,10,24,14,38,11.30
2010,10,24,14,39,8.70
2010,10,24,14,40,9.90
2010,10,24,14,41,8.30
2010,10,24,14,42,11.70
2010,10,24,14,43,7.30
2010,10,24,14,44,6.60
2010,10,24,14,45,12.60
2010,10,24,14,46,10.20
2010,10,24,14,47,8.60
2010,10,24,14,48,6.40
2010,10,24,14,49,8.60
2010,10,24,14,50,7.50
2010,10,24,14,51,8.00
2010,10,24,14,52,7.60
2010,10,24,14,53,7.10
2010,10,24,14,54,7.40
2010,10,24,14,55,8.70
2010,10,24,14,56,7.40
2010,10,24,14,57,11.10
2010,10,24,14,58,9.40
2010,10,24,14,59,8.30
2010,10,24,15,00,14.00
2010,10,24,15,01,10.80
2010,10,24,15,02,10.30
2010,10,24,15,03,10.90
2010,10,24,15,04,9.70
2010,10,24,15,05,9.50
2010,10,24,15,06,7.20
2010,10,24,15,07,5.60
2010,10,24,15,08,8.20
2010,10,24,15,09,10.90
2010,10,24,15,10,7.30
2010,10,24,15,11,7.20
2010,10,24,15,12,7.60
2010,10,24,15,13,6.40
2010,10,24,15,14,7.40
2010,10,24,15,15,7.20
2010,10,24,15,16,8.50
2010,10,24,15,17,6.80
2010,10,24,15,18,9.20
2010,10,24,15,19,8.50
2010,10,24,15,20,5.70
2010,10,24,15,21,6.30
2010,10,24,15,22,6.80
2010,10,24,15,23,5.30
2010,10,24,15,24,5.30
2010,10,24,15,25,6.10
2010,10,24,15,26,5.60
2010,10,24,15,27,7.10
2010,10,24,15,28,6.60
2010,10,24,15,29,10.30
2010,10,24,15,30,12.60
2010,10,24,15,31,11.70
2010,10,24,15,32,9.40
2010,10,24,15,33,12.70
2010,10,24,15,34,11.80
2010,10,24,15,35,10.70
2010,10,24,15,36,12.40
2010,10,24,15,37,9.70
2010,10,24,15,38,11.60
2010,10,24,15,39,9.40
2010,10,24,15,40,11.90
2010,10,24,15,41,13.20
2010,10,24,15,42,10.50
2010,10,24,15,43,7.50
2010,10,24,15,44,10.90
2010,10,24,15,45,10.30
2010,10,24,15,46,9.90
2010,10,24,15,47,13.60
2010,10,24,15,48,13.60
2010,10,24,15,49,13.00
2010,10,24,15,50,9.90
2010,10,24,15,51,10.90
2010,10,24,15,52,8.50
2010,10,24,15,53,4.80
2010,10,24,15,54,7.60
2010,10,24,15,55,8.90
2010,10,24,15,56,10.70
2010,10,24,15,57,8.10
2010,10,24,15,58,7.30
2010,10,24,15,59,4.90
2010,10,24,16,00,7.20
2010,10,24,16,01,9.20
2010,10,24,16,02,7.60
2010,10,24,16,03,7.60
2010,10,24,16,04,8.30
2010,10,24,16,05,9.70
2010,10,24,16,06,8.50
2010,10,24,16,07,9.60
2010,10,24,16,08,8.10
2010,10,24,16,09,9.10
2010,10,24,16,10,11.90
2010,10,24,16,11,8.40
2010,10,24,16,12,7.60
2010,10,24,16,13,9.10
2010,10,24,16,14,9.30
2010,10,24,16,15,8.00
2010,10,24,16,16,8.50
2010,10,24,16,17,9.40
2010,10,24,16,18,6.90
2010,10,24,16,19,4.30
2010,10,24,16,20,5.50
2010,10,24,16,21,5.30
2010,10,24,16,22,8.50
2010,10,24,16,23,11.80
2010,10,24,16,24,8.80
2010,10,24,16,25,9.40
2010,10,24,16,26,11.10
2010,10,24,16,27,12.90
2010,10,24,16,28,10.60
2010,10,24,16,29,8.90
2010,10,24,16,30,11.90
2010,10,24,16,31,9.50
2010,10,24,16,32,6.30
2010,10,24,16,33,3.30
2010,10,24,16,34,4.70
2010,10,24,16,35,4.30
2010,10,24,16,36,4.40
2010,10,24,16,37,5.10
2010,10,24,16,38,7.90
2010,10,24,16,39,8.30
2010,10,24,16,40,5.50
2010,10,24,16,41,6.60
2010,10,24,16,42,4.70
2010,10,24,16,43,6.70
2010,10,24,16,44,4.10
2010,10,24,16,45,4.90
2010,10,24,16,46,1.60
2010,10,24,16,47,0.90
2010,10,24,16,48,0.10
2010,10,24,16,49,2.40
2010,10,24,16,50,6.00
2010,10,24,16,51,5.40
2010,10,24,16,52,7.40
2010,10,24,16,53,6.00
2010,10,24,16,54,4.40
2010,10,24,16,55,2.40
2010,10,24,16,56,5.30
2010,10,24,16,57,3.80
2010,10,24,16,58,5.80
2010,10,24,16,59,3.70
2010,10,24,17,00,3.20
2010,10,24,17,01,2.80
2010,10,24,17,02,3.60
2010,10,24,17,03,3.50
2010,10,24,17,04,3.30
2010,10,24,17,05,5.00
2010,10,24,17,06,5.20
2010,10,24,17,07,5.10
2010,10,24,17,08,6.50
2010,10,24,17,09,6.00
2010,10,24,17,10,5.40
2010,10,24,17,11,4.30
2010,10,24,17,12,8.00
2010,10,24,17,13,7.10
2010,10,24,17,14,6.10
2010,10,24,17,15,6.10
2010,10,24,17,16,5.80
2010,10,24,17,17,5.60
2010,10,24,17,18,6.50
2010,10,24,17,19,2.40
2010,10,24,17,20,4.10
2010,10,24,17,21,6.00
2010,10,24,17,22,4.90
2010,10,24,17,23,4.50
2010,10,24,17,24,2.50
2010,10,24,17,25,1.30
2010,10,24,17,26,0.70
2010,10,24,17,27,0.10
2010,10,24,17,28,1.30
2010,10,24,17,29,2.30
2010,10,24,17,30,1.10
2010,10,24,17,31,3.60
2010,10,24,17,32,3.40
2010,10,24,17,33,1.30
2010,10,24,17,34,1.60
2010,10,24,17,35,1.60
2010,10,24,17,36,1.60
2010,10,24,17,37,3.20
2010,10,24,17,38,1.10
2010,10,24,17,39,1.70
2010,10,24,17,40,1.90
2010,10,24,17,41,2.40
2010,10,24,17,42,1.30
2010,10,24,17,43,1.50
2010,10,24,17,44,2.60
2010,10,24,17,45,3.60
2010,10,24,17,46,3.90
2010,10,24,17,47,3.90